Historique des stations

Station météo de Soumaintrain

Altitude de la station : 133 m







Données météorologiques pour le 17/01/2021
Date
Heure
Températures Humidité Point de rosée Vitesse
du vent
Direction Rafales Windchill Pression Pluviométrie
Cumul
Date
Heure
Températures Humidité Point de rosée Vitesse
du vent
Direction Rafales Windchill Pression Pluviométrie
Cumul
17/01/2021 13:595.1 °C95 %4.4 °C3 km/hNO11 km/h4.4 1025 hPa7.6 mm
17/01/2021 13:444.8 °C98 %4.4 °C2 km/hONO11 km/h5.0 1025 hPa7.6 mm
17/01/2021 13:294.4 °C98 %4.4 °C-ONO8 km/h4.4 1025 hPa7.6 mm
17/01/2021 13:144.0 °C98 %3.9 °C-O8 km/h3.9 1025 hPa7.6 mm
17/01/2021 12:593.7 °C98 %3.3 °C-ONO8 km/h3.9 1025 hPa7.6 mm
17/01/2021 12:443.6 °C98 %3.3 °C-ONO8 km/h3.3 1025 hPa7.4 mm
17/01/2021 12:293.4 °C98 %3.3 °C-OSO8 km/h3.3 1025 hPa7 mm
17/01/2021 12:143.2 °C98 %2.8 °C-OSO8 km/h3.3 1025 hPa6.8 mm
17/01/2021 11:592.9 °C98 %2.8 °C-OSO8 km/h2.8 1025 hPa6.4 mm
17/01/2021 11:442.8 °C98 %2.8 °C-OSO8 km/h2.8 1025 hPa6.2 mm
17/01/2021 11:292.8 °C98 %2.8 °C-OSO8 km/h2.8 1025 hPa6.2 mm
17/01/2021 11:142.8 °C98 %2.8 °C-OSO8 km/h2.8 1024 hPa6 mm
17/01/2021 10:592.8 °C98 %2.8 °C-OSO8 km/h2.8 1024 hPa5.8 mm
17/01/2021 10:442.7 °C98 %2.2 °C-OSO8 km/h2.8 1024 hPa5.6 mm
17/01/2021 10:292.7 °C98 %2.2 °C-OSO8 km/h2.8 1024 hPa5.4 mm
17/01/2021 10:142.3 °C98 %2.2 °C-OSO8 km/h2.2 1023 hPa5.2 mm
17/01/2021 09:592.3 °C98 %2.2 °C-OSO8 km/h2.2 1023 hPa5 mm
17/01/2021 09:442.1 °C98 %1.7 °C-OSO8 km/h2.2 1023 hPa5 mm
17/01/2021 09:292.1 °C98 %1.7 °C-OSO8 km/h2.2 1023 hPa4.8 mm
17/01/2021 09:142.1 °C98 %1.7 °C-OSO8 km/h2.2 1023 hPa4.2 mm
17/01/2021 08:592.2 °C98 %1.7 °C-OSO8 km/h2.2 1022 hPa4 mm
17/01/2021 08:451.9 °C98 %1.7 °C-OSO8 km/h1.7 1022 hPa4 mm
17/01/2021 08:302.1 °C98 %1.7 °C-OSO8 km/h2.2 1022 hPa3.8 mm
17/01/2021 08:151.9 °C98 %1.7 °C-OSO8 km/h2.2 1022 hPa3.6 mm
17/01/2021 08:001.8 °C97 %1.7 °C-OSO8 km/h1.7 1022 hPa3.6 mm
17/01/2021 07:451.8 °C98 %1.7 °C-OSO8 km/h1.7 1022 hPa3.4 mm
17/01/2021 07:302.1 °C98 %1.7 °C-OSO8 km/h2.2 1022 hPa3.2 mm
17/01/2021 07:152.1 °C97 %1.7 °C-OSO8 km/h2.2 1021 hPa3.2 mm
17/01/2021 07:002.1 °C98 %1.7 °C-OSO8 km/h2.2 1021 hPa3 mm
17/01/2021 06:451.9 °C98 %1.7 °C-O8 km/h1.7 1021 hPa2.8 mm
17/01/2021 06:301.8 °C97 %1.7 °C-O8 km/h1.7 1021 hPa2.8 mm
17/01/2021 06:151.9 °C98 %1.7 °C-OSO8 km/h1.7 1021 hPa2.6 mm
17/01/2021 06:001.8 °C98 %1.7 °C-OSO8 km/h1.7 1021 hPa2.4 mm
17/01/2021 05:451.7 °C97 %1.1 °C-O8 km/h1.7 1021 hPa2.4 mm
17/01/2021 05:301.6 °C97 %1.1 °C-OSO8 km/h1.7 1021 hPa2.2 mm
17/01/2021 05:151.5 °C97 %1.1 °C-OSO8 km/h1.7 1021 hPa1.6 mm
17/01/2021 05:001.5 °C97 %1.1 °C-OSO8 km/h1.7 1021 hPa1.6 mm
17/01/2021 04:451.6 °C97 %1.1 °C-OSO8 km/h1.7 1021 hPa1.4 mm
17/01/2021 04:301.6 °C97 %1.1 °C-OSO8 km/h1.7 1021 hPa1.4 mm
17/01/2021 04:151.6 °C97 %1.1 °C-OSO8 km/h1.7 1021 hPa1.4 mm
17/01/2021 03:591.5 °C97 %1.1 °C-O8 km/h1.7 1021 hPa1.2 mm
17/01/2021 03:441.3 °C97 %1.1 °C-OSO8 km/h1.1 1021 hPa1.2 mm
17/01/2021 03:291.3 °C97 %1.1 °C-OSO8 km/h1.1 1021 hPa1 mm
17/01/2021 03:141.3 °C97 %1.1 °C-OSO8 km/h1.1 1021 hPa1 mm
17/01/2021 02:591.3 °C97 %1.1 °C-OSO8 km/h1.1 1021 hPa1 mm
17/01/2021 02:441.3 °C97 %1.1 °C-O8 km/h1.1 1021 hPa0.8 mm
17/01/2021 02:291.4 °C97 %1.1 °C-OSO8 km/h1.7 1021 hPa0.8 mm
17/01/2021 02:141.2 °C97 %0.6 °C-OSO3 km/h1.1 1020 hPa0.6 mm
17/01/2021 01:591.0 °C97 %0.6 °C-OSO2 km/h1.1 1021 hPa0.6 mm
17/01/2021 01:440.9 °C97 %0.6 °C-SO2 km/h1.1 1021 hPa0.6 mm
17/01/2021 01:290.9 °C97 %0.6 °C-SO2 km/h1.1 1021 hPa0.4 mm
17/01/2021 01:140.9 °C97 %0.6 °C---1.1 1021 hPa0.2 mm
17/01/2021 00:590.7 °C97 %0.6 °C---0.6 1021 hPa0.2 mm
17/01/2021 00:440.8 °C97 %0.6 °C---0.6 1020 hPa0.2 mm
17/01/2021 00:290.8 °C97 %0.6 °C---0.6 1020 hPa-
17/01/2021 00:140.7 °C97 %0.6 °C---0.6 1021 hPa-


Minima :

Température : 0.7 °C
Humidité : 95 %
Point de rosée : 0.6 °C
Vent moyen : 2 km/h
Windchill : 0.6
Pression atm. : 1020 hPa
Maxima :

Température : 5.1 °C
Humidité : 98 %
Point de rosée : 4.4 °C
Vent moyen : 3 km/h
Windchill : 5.0
Pression atm. : 1025 hPa
Rafales max : 11 km/h
Cumul de pluie sur 24H : 7.6 mm

Soumaintrain est une commune du département Yonne (89).
La station météorologique du réseau de l'association la plus proche de Soumaintrain est celle de Cerisiers



Icône Facebook Association Météo Centre Icône Twitter Association Météo Centre Icône Chaîne Youtube Association Météo Centre Icône contact Association Météo Centre Icône Insta Association Météo Centre